| time (UTC) | temp F | wind direction | speed knots | gust knots | rain 1hr in | rain 24hr in | rain mn in | humidity % | barometer mb |
| 20260510182201 | 109 | 175 | 5.2 | 9.6 | 0.00 | 0.00 | 0.00 | 100 | 1013.0 |
| 20260510181700 | 109 | 151 | 4.3 | 9.6 | 0.00 | 0.00 | 0.00 | 100 | 1013.0 |
| 20260510181200 | 109 | 143 | 2.6 | 8.7 | 0.00 | 0.00 | 0.00 | 100 | 1013.0 |
| 20260510180700 | 108 | 170 | 4.3 | 8.7 | 0.00 | 0.00 | 0.00 | 100 | 1013.1 |
| 20260510180430 | 108 | 154 | 3.5 | 11.3 | 0.00 | 0.00 | 0.00 | 100 | 1013.1 |
| 20260510175701 | 108 | 120 | 3.5 | 11.3 | 0.00 | 0.00 | 0.00 | 100 | 1013.2 |
| 20260510175201 | 108 | 136 | 4.3 | 9.6 | 0.00 | 0.00 | 0.00 | 100 | 1013.2 |
| 20260510174700 | 108 | 142 | 6.1 | 9.6 | 0.00 | 0.00 | 0.00 | 100 | 1013.3 |
| 20260510174200 | 108 | 140 | 3.5 | 7.8 | 0.00 | 0.00 | 0.00 | 100 | 1013.4 |
| 20260510173659 | 108 | 142 | 4.3 | 7.8 | 0.00 | 0.00 | 0.00 | 100 | 1013.5 |
| 20260510173159 | 108 | 119 | 5.2 | 7.8 | 0.00 | 0.00 | 0.00 | 100 | 1013.6 |
| 20260510172659 | 108 | 151 | 3.5 | 7.0 | 0.00 | 0.00 | 0.00 | 100 | 1013.8 |
| 20260510172429 | 107 | 109 | 3.5 | 7.0 | 0.00 | 0.00 | 0.00 | 100 | 1013.9 |
| 20260510171657 | 108 | 151 | 3.5 | 7.8 | 0.00 | 0.00 | 0.00 | 100 | 1013.9 |
| 20260510171157 | 107 | 144 | 5.2 | 9.6 | 0.00 | 0.00 | 0.00 | 100 | 1014.0 |
| 20260510170927 | 107 | 140 | 4.3 | 9.6 | 0.00 | 0.00 | 0.00 | 100 | 1014.1 |
| 20260510170427 | 107 | 126 | 5.2 | 8.7 | 0.00 | 0.00 | 0.00 | 100 | 1014.2 |
| 20260510165657 | 107 | 149 | 3.5 | 7.8 | 0.00 | 0.00 | 0.00 | 100 | 1014.2 |
| 20260510165156 | 107 | 142 | 1.7 | 9.6 | 0.00 | 0.00 | 0.00 | 100 | 1014.1 |
| 20260510164927 | 107 | 137 | 4.3 | 9.6 | 0.00 | 0.00 | 0.00 | 100 | 1014.1 |
| 20260510164155 | 107 | 161 | 4.3 | 9.6 | 0.00 | 0.00 | 0.00 | 100 | 1014.1 |
| 20260510163927 | 107 | 161 | 2.6 | 7.0 | 0.00 | 0.00 | 0.00 | 100 | 1014.1 |
| 20260510163159 | 107 | 165 | 4.3 | 8.7 | 0.00 | 0.00 | 0.00 | 100 | 1014.1 |
| 20260510163155 | 107 | 142 | 2.6 | 7.8 | 0.00 | 0.00 | 0.00 | 100 | 1014.0 |
| 20260510162427 | 107 | 168 | 3.5 | 8.7 | 0.00 | 0.00 | 0.00 | 100 | 1014.1 |
| 20260510161654 | 107 | 112 | 2.6 | 7.0 | 0.00 | 0.00 | 0.00 | 100 | 1014.0 |
| 20260510161154 | 107 | 143 | 3.5 | 7.8 | 0.00 | 0.00 | 0.00 | 100 | 1014.0 |
| 20260510160753 | 108 | 120 | 0.0 | 7.8 | 0.00 | 0.00 | 0.00 | 100 | 1014.1 |
| 20260510155646 | 107 | 142 | 4.3 | 7.8 | 0.00 | 0.00 | 0.00 | 100 | 1014.0 |
| 20260510155145 | 107 | 129 | 4.3 | 7.0 | 0.00 | 0.00 | 0.00 | 100 | 1014.0 |
| 20260510154917 | 107 | 164 | 3.5 | 7.0 | 0.00 | 0.00 | 0.00 | 100 | 1013.9 |
| 20260510154145 | 107 | 156 | 2.6 | 7.0 | 0.00 | 0.00 | 0.00 | 100 | 1013.9 |
| 20260510153644 | 107 | 170 | 1.7 | 6.1 | 0.00 | 0.00 | 0.00 | 100 | 1013.9 |
| 20260510153412 | 107 | 157 | 1.7 | 6.1 | 0.00 | 0.00 | 0.00 | 100 | 1013.8 |
| 20260510152640 | 107 | 120 | 4.3 | 6.1 | 0.00 | 0.00 | 0.00 | 100 | 1013.8 |
| 20260510152136 | 107 | 165 | 2.6 | 7.8 | 0.00 | 0.00 | 0.00 | 100 | 1013.8 |
| 20260510151632 | 106 | 81 | 3.5 | 7.8 | 0.00 | 0.00 | 0.00 | 100 | 1013.6 |
| 20260510151131 | 106 | 147 | 4.3 | 7.8 | 0.00 | 0.00 | 0.00 | 100 | 1013.6 |
| 20260510150902 | 106 | 154 | 2.6 | 7.8 | 0.00 | 0.00 | 0.00 | 100 | 1013.6 |
| 20260510150129 | 106 | 174 | 3.5 | 6.1 | 0.00 | 0.00 | 0.00 | 100 | 1013.6 |
| 20260510145630 | 106 | 187 | 2.6 | 5.2 | 0.00 | 0.00 | 0.00 | 100 | 1013.5 |
| 20260510145350 | 105 | 127 | 0.0 | 5.2 | 0.00 | 0.00 | 0.00 | 100 | 1013.5 |
| 20260510144619 | 105 | 104 | 0.0 | 4.3 | 0.00 | 0.00 | 0.00 | 100 | 1013.5 |
| 20260510144344 | 105 | 140 | 2.6 | 4.3 | 0.00 | 0.00 | 0.00 | 100 | 1013.4 |
| 20260510143612 | 104 | 99 | 1.7 | 3.5 | 0.00 | 0.00 | 0.00 | 100 | 1013.3 |
| 20260510143112 | 104 | 106 | 0.0 | 5.2 | 0.00 | 0.00 | 0.00 | 100 | 1013.3 |
| 20260510142608 | 103 | 106 | 0.0 | 5.2 | 0.00 | 0.00 | 0.00 | 100 | 1013.1 |
| 20260510142107 | 104 | 132 | 1.7 | 4.3 | 0.00 | 0.00 | 0.00 | 100 | 1013.1 |
| 20260510141608 | 104 | 149 | 0.0 | 4.3 | 0.00 | 0.00 | 0.00 | 100 | 1013.1 |
| 20260510141102 | 103 | 151 | 0.0 | 4.3 | 0.00 | 0.00 | 0.00 | 100 | 1013.1 |
| 20260510140601 | 103 | 164 | 0.0 | 6.1 | 0.00 | 0.00 | 0.00 | 100 | 1013.1 |
| 20260510135603 | 103 | 133 | 0.0 | 5.2 | 0.00 | 0.00 | 0.00 | 100 | 1012.9 |
| 20260510135048 | 103 | 140 | 3.5 | 5.2 | 0.00 | 0.00 | 0.00 | 100 | 1012.8 |
| 20260510134547 | 102 | 119 | 0.0 | 6.1 | 0.00 | 0.00 | 0.00 | 100 | 1012.8 |
| 20260510134031 | 102 | 133 | 2.6 | 6.1 | 0.00 | 0.00 | 0.00 | 100 | 1012.6 |
| 20260510133526 | 103 | 92 | 0.0 | 0.9 | 0.00 | 0.00 | 0.00 | 100 | 1012.5 |
| 20260510133021 | 102 | 113 | 0.0 | 4.3 | 0.00 | 0.00 | 0.00 | 100 | 1012.4 |
| 20260510132515 | 102 | 113 | 0.0 | 5.2 | 0.00 | 0.00 | 0.00 | 100 | 1012.4 |
| 20260510131959 | 101 | 104 | 0.9 | 4.3 | 0.00 | 0.00 | 0.00 | 100 | 1012.4 |
| 20260510131727 | 101 | 146 | 0.9 | 4.3 | 0.00 | 0.00 | 0.00 | 100 | 1012.3 |
| 20260510130956 | 101 | 125 | 1.7 | 3.5 | 0.00 | 0.00 | 0.00 | 100 | 1012.1 |
| 20260510130456 | 101 | 150 | 0.9 | 4.3 | 0.00 | 0.00 | 0.00 | 100 | 1012.1 |
| 20260510125945 | 101 | 112 | 0.9 | 4.3 | 0.00 | 0.00 | 0.00 | 100 | 1011.9 |
| 20260510125432 | 100 | 130 | 0.0 | 0.0 | 0.00 | 0.00 | 0.00 | 100 | 1011.9 |
| 20260510125142 | 100 | 130 | 0.0 | 0.0 | 0.00 | 0.00 | 0.00 | 1 | 1011.8 |
| 20260510124405 | 100 | 130 | 0.0 | 0.0 | 0.00 | 0.00 | 0.00 | 2 | 1011.7 |
| 20260510123859 | 100 | 130 | 0.0 | 0.0 | 0.00 | 0.00 | 0.00 | 4 | 1011.6 |
| 20260510123345 | 100 | 130 | 0.0 | 0.0 | 0.00 | 0.00 | 0.00 | 6 | 1011.6 |
| 20260510123110 | 100 | 130 | 0.0 | 0.0 | 0.00 | 0.00 | 0.00 | 7 | 1011.5 |
| 20260510122331 | 100 | 130 | 0.0 | 0.0 | 0.00 | 0.00 | 0.00 | 11 | 1011.3 |
| 20260510121819 | 100 | 130 | 0.0 | 0.0 | 0.00 | 0.00 | 0.00 | 10 | 1011.4 |
| 20260510121319 | 100 | 130 | 0.0 | 0.0 | 0.00 | 0.00 | 0.00 | 13 | 1011.3 |
| 20260510121048 | 100 | 130 | 0.0 | 0.0 | 0.00 | 0.00 | 0.00 | 8 | 1011.2 |
| 20260510120543 | 100 | 130 | 0.0 | 0.0 | 0.00 | 0.00 | 0.00 | 7 | 1011.1 |
| 20260510115809 | 100 | 130 | 0.0 | 0.0 | 0.00 | 0.00 | 0.00 | 7 | 1011.1 |
| 20260510115306 | 100 | 130 | 0.0 | 0.0 | 0.00 | 0.00 | 0.00 | 6 | 1011.0 |
| 20260510115030 | 100 | 130 | 0.0 | 0.0 | 0.00 | 0.00 | 0.00 | 5 | 1010.9 |
| 20260510114238 | 100 | 130 | 0.0 | 0.0 | 0.00 | 0.00 | 0.00 | 5 | 1011.0 |
| 20260510113738 | 100 | 130 | 0.0 | 0.0 | 0.00 | 0.00 | 0.00 | 4 | 1010.9 |
| 20260510113234 | 100 | 130 | 0.0 | 0.0 | 0.00 | 0.00 | 0.00 | 4 | 1010.9 |
| 20260510112728 | 100 | 130 | 0.0 | 0.0 | 0.00 | 0.00 | 0.00 | 4 | 1010.9 |
| 20260510112227 | 100 | 130 | 0.0 | 0.0 | 0.00 | 0.00 | 0.00 | 3 | 1010.9 |
| 20260510111721 | 100 | 130 | 0.0 | 0.0 | 0.00 | 0.00 | 0.00 | 1 | 1010.9 |
| 20260510111214 | 100 | 130 | 0.0 | 0.0 | 0.00 | 0.00 | 0.00 | 100 | 1010.9 |
| 20260510110713 | 101 | 130 | 0.0 | 0.0 | 0.00 | 0.00 | 0.00 | 100 | 1011.0 |
| 20260510110213 | 100 | 130 | 0.0 | 0.0 | 0.00 | 0.00 | 0.00 | 100 | 1010.9 |
| 20260510105705 | 100 | 130 | 0.0 | 1.7 | 0.00 | 0.00 | 0.00 | 100 | 1010.8 |
| 20260510105201 | 100 | 130 | 0.0 | 6.1 | 0.00 | 0.00 | 0.00 | 100 | 1010.7 |
| 20260510104924 | 101 | 130 | 0.0 | 7.0 | 0.00 | 0.00 | 0.00 | 100 | 1010.6 |
| 20260510104152 | 100 | 151 | 0.0 | 0.0 | 0.00 | 0.00 | 0.00 | 100 | 1010.6 |
| 20260510103637 | 100 | 151 | 0.0 | 2.6 | 0.00 | 0.00 | 0.00 | 100 | 1010.6 |
| 20260510103117 | 101 | 151 | 0.0 | 2.6 | 0.00 | 0.00 | 0.00 | 100 | 1010.6 |
| 20260510102547 | 101 | 149 | 0.0 | 4.3 | 0.00 | 0.00 | 0.00 | 100 | 1010.4 |
| 20260510102042 | 101 | 149 | 0.0 | 5.2 | 0.00 | 0.00 | 0.00 | 100 | 1010.3 |
| 20260510101541 | 101 | 167 | 0.9 | 5.2 | 0.00 | 0.00 | 0.00 | 100 | 1010.3 |
| 20260510101041 | 101 | 181 | 0.0 | 4.3 | 0.00 | 0.00 | 0.00 | 100 | 1010.2 |
| 20260510100542 | 101 | 160 | 0.9 | 4.3 | 0.00 | 0.00 | 0.00 | 100 | 1010.2 |
| 20260510100040 | 101 | 153 | 2.6 | 4.3 | 0.00 | 0.00 | 0.00 | 100 | 1010.3 |
| 20260510095535 | 101 | 67 | 1.7 | 4.3 | 0.00 | 0.00 | 0.00 | 100 | 1010.3 |
| 20260510095031 | 101 | 115 | 0.0 | 6.1 | 0.00 | 0.00 | 0.00 | 100 | 1010.2 |
| 20260510094522 | 101 | 115 | 1.7 | 6.1 | 0.00 | 0.00 | 0.00 | 100 | 1010.3 |
| 20260510094018 | 101 | 142 | 0.0 | 4.3 | 0.00 | 0.00 | 0.00 | 100 | 1010.4 |
| 20260510093515 | 101 | 120 | 0.0 | 2.6 | 0.00 | 0.00 | 0.00 | 100 | 1010.3 |
| 20260510092957 | 101 | 120 | 0.0 | 2.6 | 0.00 | 0.00 | 0.00 | 100 | 1010.3 |
| 20260510092726 | 101 | 127 | 0.0 | 4.3 | 0.00 | 0.00 | 0.00 | 100 | 1010.3 |
| 20260510091939 | 101 | 127 | 0.9 | 4.3 | 0.00 | 0.00 | 0.00 | 100 | 1010.0 |
| 20260510091430 | 101 | 164 | 0.0 | 0.0 | 0.00 | 0.00 | 0.00 | 100 | 1010.2 |
| 20260510091150 | 101 | 164 | 0.0 | 0.0 | 0.00 | 0.00 | 0.00 | 100 | 1010.3 |
| 20260510090416 | 101 | 164 | 0.0 | 0.0 | 0.00 | 0.00 | 0.00 | 100 | 1010.3 |
| 20260510090136 | 102 | 164 | 0.0 | 0.0 | 0.00 | 0.00 | 0.00 | 100 | 1010.3 |
| 20260510085404 | 102 | 164 | 0.0 | 0.0 | 0.00 | 0.00 | 0.00 | 100 | 1010.4 |
| 20260510085130 | 102 | 164 | 0.0 | 0.0 | 0.00 | 0.00 | 0.00 | 100 | 1010.4 |
| 20260510084358 | 102 | 164 | 0.0 | 0.0 | 0.00 | 0.00 | 0.00 | 100 | 1010.4 |
| 20260510083829 | 101 | 164 | 0.0 | 4.3 | 0.00 | 0.00 | 0.00 | 100 | 1010.4 |
| 20260510083325 | 102 | 164 | 1.7 | 4.3 | 0.00 | 0.00 | 0.00 | 100 | 1010.5 |
| 20260510082819 | 102 | 132 | 0.0 | 0.0 | 0.00 | 0.00 | 0.00 | 100 | 1010.6 |
| 20260510082318 | 101 | 132 | 0.0 | 0.0 | 0.00 | 0.00 | 0.00 | 100 | 1010.7 |
| 20260510081817 | 102 | 132 | 0.0 | 0.0 | 0.00 | 0.00 | 0.00 | 100 | 1010.7 |
| 20260510081805 | 101 | 132 | 0.0 | 0.0 | 0.00 | 0.00 | 0.00 | 100 | 1010.8 |
| 20260510080757 | 102 | 132 | 0.0 | 0.0 | 0.00 | 0.00 | 0.00 | 100 | 1010.9 |
| 20260510080253 | 102 | 132 | 0.0 | 0.0 | 0.00 | 0.00 | 0.00 | 100 | 1010.8 |
| 20260510075749 | 102 | 132 | 0.0 | 0.0 | 0.00 | 0.00 | 0.00 | 100 | 1010.8 |
| 20260510075510 | 102 | 132 | 0.0 | 0.0 | 0.00 | 0.00 | 0.00 | 100 | 1010.7 |
| 20260510074738 | 102 | 132 | 0.0 | 0.0 | 0.00 | 0.00 | 0.00 | 100 | 1010.8 |
| 20260510074217 | 102 | 132 | 0.0 | 0.0 | 0.00 | 0.00 | 0.00 | 100 | 1010.8 |
| 20260510073717 | 102 | 132 | 0.0 | 0.0 | 0.00 | 0.00 | 0.00 | 100 | 1010.9 |
| 20260510073212 | 102 | 132 | 0.0 | 2.6 | 0.00 | 0.00 | 0.00 | 100 | 1010.9 |
| 20260510072658 | 103 | 132 | 0.0 | 2.6 | 0.00 | 0.00 | 0.00 | 100 | 1010.9 |
| 20260510072154 | 102 | 123 | 0.0 | 0.0 | 0.00 | 0.00 | 0.00 | 100 | 1010.9 |
| 20260510071647 | 102 | 123 | 0.0 | 0.0 | 0.00 | 0.00 | 0.00 | 100 | 1010.9 |
| 20260510071146 | 103 | 123 | 0.0 | 0.0 | 0.00 | 0.00 | 0.00 | 100 | 1010.9 |
| 20260510070643 | 103 | 123 | 0.0 | 0.0 | 0.00 | 0.00 | 0.00 | 100 | 1010.9 |
| 20260510070412 | 103 | 123 | 0.0 | 0.0 | 0.00 | 0.00 | 0.00 | 100 | 1010.9 |
| 20260510065627 | 103 | 123 | 0.0 | 0.0 | 0.00 | 0.00 | 0.00 | 100 | 1010.8 |
| 20260510065121 | 103 | 123 | 0.0 | 3.5 | 0.00 | 0.00 | 0.00 | 100 | 1010.9 |
| 20260510064623 | 103 | 123 | 0.0 | 3.5 | 0.00 | 0.00 | 0.00 | 100 | 1010.9 |
| 20260510064101 | 103 | 109 | 0.0 | 0.0 | 0.00 | 0.00 | 0.00 | 100 | 1010.9 |
| 20260510063545 | 103 | 109 | 0.0 | 0.0 | 0.00 | 0.00 | 0.00 | 100 | 1011.0 |
| 20260510063021 | 103 | 109 | 0.0 | 0.0 | 0.00 | 0.00 | 0.00 | 100 | 1011.0 |
| 20260510062513 | 103 | 109 | 0.0 | 0.0 | 0.00 | 0.00 | 0.00 | 100 | 1011.0 |
| 20260510062244 | 103 | 109 | 0.0 | 0.0 | 0.00 | 0.00 | 0.00 | 100 | 1010.9 |
| 20260510061513 | 103 | 109 | 0.0 | 0.0 | 0.00 | 0.00 | 0.00 | 100 | 1010.9 |
| 20260510061013 | 103 | 109 | 0.0 | 0.0 | 0.00 | 0.00 | 0.00 | 100 | 1010.8 |
| 20260510060502 | 103 | 109 | 0.0 | 0.0 | 0.00 | 0.00 | 0.00 | 100 | 1010.9 |
| 20260510055956 | 103 | 109 | 0.0 | 0.0 | 0.00 | 0.00 | 0.00 | 100 | 1010.8 |
| 20260510055455 | 104 | 109 | 0.0 | 0.0 | 0.00 | 0.00 | 0.00 | 100 | 1010.8 |
| 20260510054955 | 104 | 109 | 0.0 | 4.3 | 0.00 | 0.00 | 0.00 | 100 | 1010.9 |
| 20260510054430 | 104 | 109 | 0.9 | 4.3 | 0.00 | 0.00 | 0.00 | 100 | 1010.8 |
| 20260510053909 | 104 | 135 | 0.0 | 0.0 | 0.00 | 0.00 | 0.00 | 100 | 1010.8 |
| 20260510053406 | 104 | 135 | 0.0 | 0.0 | 0.00 | 0.00 | 0.00 | 100 | 1010.8 |
| 20260510053401 | 104 | 135 | 0.0 | 0.0 | 0.00 | 0.00 | 0.00 | 100 | 1010.7 |
| 20260510052355 | 104 | 135 | 0.0 | 3.5 | 0.00 | 0.00 | 0.00 | 100 | 1010.8 |
| 20260510051849 | 105 | 135 | 0.0 | 3.5 | 0.00 | 0.00 | 0.00 | 100 | 1010.8 |
| 20260510051334 | 104 | 113 | 0.0 | 3.5 | 0.00 | 0.00 | 0.00 | 100 | 1010.8 |
| 20260510050833 | 104 | 104 | 0.0 | 2.6 | 0.00 | 0.00 | 0.00 | 100 | 1010.9 |
| 20260510050334 | 104 | 104 | 0.0 | 5.2 | 0.00 | 0.00 | 0.00 | 100 | 1010.8 |
| 20260510045832 | 104 | 104 | 2.6 | 5.2 | 0.00 | 0.00 | 0.00 | 100 | 1010.8 |
| 20260510045334 | 105 | 123 | 0.0 | 2.6 | 0.00 | 0.00 | 0.00 | 100 | 1010.7 |
| 20260510044826 | 105 | 123 | 0.0 | 2.6 | 0.00 | 0.00 | 0.00 | 100 | 1010.8 |
| 20260510044316 | 105 | 137 | 0.0 | 0.0 | 0.00 | 0.00 | 0.00 | 100 | 1010.7 |
| 20260510043807 | 105 | 137 | 0.0 | 0.0 | 0.00 | 0.00 | 0.00 | 100 | 1010.6 |
| 20260510043303 | 105 | 137 | 0.0 | 0.0 | 0.00 | 0.00 | 0.00 | 100 | 1010.6 |
| 20260510043028 | 105 | 137 | 0.0 | 0.0 | 0.00 | 0.00 | 0.00 | 100 | 1010.6 |
| 20260510042258 | 104 | 137 | 0.0 | 0.0 | 0.00 | 0.00 | 0.00 | 100 | 1010.6 |
| 20260510041754 | 104 | 137 | 0.0 | 0.0 | 0.00 | 0.00 | 0.00 | 100 | 1010.5 |
| 20260510041222 | 105 | 137 | 0.0 | 0.0 | 0.00 | 0.00 | 0.00 | 100 | 1010.5 |
| 20260510040715 | 105 | 137 | 0.0 | 0.0 | 0.00 | 0.00 | 0.00 | 100 | 1010.5 |
| 20260510040213 | 105 | 137 | 0.0 | 0.0 | 0.00 | 0.00 | 0.00 | 100 | 1010.4 |
| 20260510035708 | 105 | 137 | 0.0 | 0.0 | 0.00 | 0.00 | 0.00 | 100 | 1010.4 |
| 20260510035202 | 105 | 137 | 0.0 | 0.0 | 0.00 | 0.00 | 0.00 | 100 | 1010.4 |
| 20260510034657 | 105 | 137 | 0.0 | 0.0 | 0.00 | 0.00 | 0.00 | 100 | 1010.3 |
| 20260510034156 | 106 | 137 | 0.0 | 0.0 | 0.00 | 0.00 | 0.00 | 100 | 1010.3 |
| 20260510033927 | 105 | 137 | 0.0 | 0.0 | 0.00 | 0.00 | 0.00 | 100 | 1010.3 |
| 20260510033151 | 106 | 137 | 0.0 | 0.0 | 0.00 | 0.00 | 0.00 | 100 | 1010.3 |
| 20260510032646 | 106 | 137 | 0.0 | 0.0 | 0.00 | 0.00 | 0.00 | 100 | 1010.2 |
| 20260510032412 | 106 | 137 | 0.0 | 0.0 | 0.00 | 0.00 | 0.00 | 100 | 1010.2 |
| 20260510031848 | 106 | 137 | 0.0 | 0.0 | 0.00 | 0.00 | 0.00 | 100 | 1010.0 |
| 20260510031116 | 106 | 137 | 0.0 | 0.0 | 0.00 | 0.00 | 0.00 | 100 | 1010.0 |
| 20260510030616 | 106 | 137 | 0.0 | 0.0 | 0.00 | 0.00 | 0.00 | 100 | 1009.9 |
| 20260510030110 | 106 | 137 | 0.0 | 0.0 | 0.00 | 0.00 | 0.00 | 100 | 1009.7 |
| 20260510025817 | 106 | 137 | 0.0 | 0.0 | 0.00 | 0.00 | 0.00 | 100 | 1009.7 |
| 20260510025044 | 106 | 137 | 0.0 | 0.0 | 0.00 | 0.00 | 0.00 | 100 | 1009.6 |
| 20260510024542 | 106 | 137 | 0.0 | 3.5 | 0.00 | 0.00 | 0.00 | 100 | 1009.6 |
| 20260510024031 | 106 | 137 | 1.7 | 3.5 | 0.00 | 0.00 | 0.00 | 100 | 1009.5 |
| 20260510023512 | 106 | 142 | 0.0 | 2.6 | 0.00 | 0.00 | 0.00 | 100 | 1009.4 |
| 20260510023002 | 107 | 142 | 0.0 | 3.5 | 0.00 | 0.00 | 0.00 | 100 | 1009.3 |
| 20260510022502 | 107 | 144 | 0.0 | 3.5 | 0.00 | 0.00 | 0.00 | 100 | 1009.2 |
| 20260510022002 | 107 | 127 | 0.0 | 0.0 | 0.00 | 0.00 | 0.00 | 100 | 1009.2 |
| 20260510021501 | 107 | 127 | 0.0 | 0.0 | 0.00 | 0.00 | 0.00 | 100 | 1009.1 |
| 20260510020956 | 107 | 127 | 0.0 | 0.0 | 0.00 | 0.00 | 0.00 | 100 | 1009.0 |
| 20260510020455 | 106 | 127 | 0.0 | 0.0 | 0.00 | 0.00 | 0.00 | 100 | 1008.9 |
| 20260510020219 | 107 | 127 | 0.0 | 0.0 | 0.00 | 0.00 | 0.00 | 100 | 1008.8 |
| 20260510015443 | 107 | 127 | 0.0 | 0.0 | 0.00 | 0.00 | 0.00 | 100 | 1008.7 |
| 20260510014939 | 107 | 127 | 0.0 | 0.0 | 0.00 | 0.00 | 0.00 | 100 | 1008.7 |
| 20260510014710 | 107 | 127 | 0.0 | 0.0 | 0.00 | 0.00 | 0.00 | 100 | 1008.8 |
| 20260510014544 | 107 | 127 | 0.0 | 0.0 | 0.00 | 0.00 | 0.00 | 100 | 1008.7 |
| 20260510013429 | 107 | 127 | 0.0 | 0.0 | 0.00 | 0.00 | 0.00 | 100 | 1008.6 |
| 20260510013149 | 107 | 127 | 0.0 | 0.0 | 0.00 | 0.00 | 0.00 | 100 | 1008.6 |
| 20260510012403 | 108 | 127 | 0.0 | 0.0 | 0.00 | 0.00 | 0.00 | 100 | 1008.5 |
| 20260510011857 | 108 | 127 | 0.0 | 2.6 | 0.00 | 0.00 | 0.00 | 100 | 1008.4 |
| 20260510011340 | 108 | 127 | 0.0 | 5.2 | 0.00 | 0.00 | 0.00 | 100 | 1008.4 |
| 20260510010835 | 108 | 112 | 0.0 | 6.1 | 0.00 | 0.00 | 0.00 | 100 | 1008.4 |
| 20260510010603 | 108 | 112 | 2.6 | 6.1 | 0.00 | 0.00 | 0.00 | 100 | 1008.4 |
| 20260510005829 | 108 | 130 | 0.0 | 2.6 | 0.00 | 0.00 | 0.00 | 100 | 1008.4 |
| 20260510005306 | 108 | 130 | 0.0 | 1.7 | 0.00 | 0.00 | 0.00 | 100 | 1008.3 |
| 20260510004745 | 108 | 130 | 0.0 | 7.8 | 0.00 | 0.00 | 0.00 | 100 | 1008.3 |
| 20260510004231 | 109 | 130 | 1.7 | 7.8 | 0.00 | 0.00 | 0.00 | 100 | 1008.2 |
| 20260510003727 | 109 | 149 | 0.0 | 5.2 | 0.00 | 0.00 | 0.00 | 100 | 1008.2 |
| 20260510003218 | 109 | 139 | 1.7 | 5.2 | 0.00 | 0.00 | 0.00 | 100 | 1008.1 |
| 20260510002704 | 109 | 116 | 0.0 | 3.5 | 0.00 | 0.00 | 0.00 | 100 | 1008.1 |
| 20260510002158 | 109 | 125 | 0.0 | 3.5 | 0.00 | 0.00 | 0.00 | 100 | 1008.0 |
| 20260510001655 | 110 | 127 | 0.9 | 5.2 | 0.00 | 0.00 | 0.00 | 100 | 1008.0 |
| 20260510001151 | 110 | 171 | 1.7 | 5.2 | 0.00 | 0.00 | 0.00 | 100 | 1008.0 |
| 20260510000917 | 110 | 120 | 0.0 | 5.2 | 0.00 | 0.00 | 0.00 | 100 | 1007.9 |
| 20260510000146 | 110 | 122 | 0.0 | 6.1 | 0.00 | 0.00 | 0.00 | 100 | 1007.9 |
| 20260509235643 | 110 | 115 | 0.9 | 6.1 | 0.00 | 0.00 | 0.00 | 100 | 1007.8 |
| 20260509235141 | 110 | 116 | 0.0 | 0.0 | 0.00 | 0.00 | 0.00 | 100 | 1007.7 |
| 20260509234622 | 110 | 116 | 0.0 | 2.6 | 0.00 | 0.00 | 0.00 | 100 | 1007.7 |
| 20260509234101 | 110 | 116 | 0.0 | 2.6 | 0.00 | 0.00 | 0.00 | 100 | 1007.7 |
| 20260509234051 | 110 | 120 | 0.0 | 4.3 | 0.00 | 0.00 | 0.00 | 100 | 1007.6 |
| 20260509233048 | 110 | 139 | 1.7 | 5.2 | 0.00 | 0.00 | 0.00 | 100 | 1007.6 |
| 20260509232543 | 110 | 136 | 2.6 | 5.2 | 0.00 | 0.00 | 0.00 | 100 | 1007.7 |
| 20260509232044 | 110 | 144 | 3.5 | 5.2 | 0.00 | 0.00 | 0.00 | 100 | 1007.6 |
| 20260509231545 | 110 | 137 | 0.0 | 4.3 | 0.00 | 0.00 | 0.00 | 100 | 1007.5 |
| 20260509231044 | 110 | 132 | 2.6 | 4.3 | 0.00 | 0.00 | 0.00 | 100 | 1007.5 |
| 20260509230815 | 110 | 125 | 0.0 | 4.3 | 0.00 | 0.00 | 0.00 | 100 | 1007.6 |
| 20260509230043 | 111 | 53 | 0.0 | 4.3 | 0.00 | 0.00 | 0.00 | 100 | 1007.6 |
| 20260509225543 | 111 | 161 | 0.0 | 2.6 | 0.00 | 0.00 | 0.00 | 100 | 1007.5 |
| 20260509225039 | 110 | 22 | 0.0 | 2.6 | 0.00 | 0.00 | 0.00 | 100 | 1007.6 |
| 20260509224542 | 110 | 125 | 0.9 | 5.2 | 0.00 | 0.00 | 0.00 | 100 | 1007.5 |
| 20260509224537 | 110 | 37 | 0.0 | 3.5 | 0.00 | 0.00 | 0.00 | 100 | 1007.6 |
| 20260509223537 | 110 | 113 | 2.6 | 5.2 | 0.00 | 0.00 | 0.00 | 100 | 1007.5 |
| 20260509223307 | 110 | 78 | 0.0 | 4.3 | 0.00 | 0.00 | 0.00 | 100 | 1007.6 |
| 20260509222533 | 110 | 78 | 0.9 | 6.1 | 0.00 | 0.00 | 0.00 | 100 | 1007.6 |
| 20260509222035 | 110 | 139 | 2.6 | 6.1 | 0.00 | 0.00 | 0.00 | 100 | 1007.6 |
| 20260509221532 | 110 | 132 | 4.3 | 7.8 | 0.00 | 0.00 | 0.00 | 100 | 1007.6 |
| 20260509221033 | 111 | 102 | 3.5 | 8.7 | 0.00 | 0.00 | 0.00 | 100 | 1007.5 |
| 20260509220531 | 110 | 147 | 2.6 | 8.7 | 0.00 | 0.00 | 0.00 | 100 | 1007.6 |
| 20260509220031 | 110 | 153 | 0.9 | 6.1 | 0.00 | 0.00 | 0.00 | 100 | 1007.6 |
| 20260509215531 | 110 | 132 | 4.3 | 7.8 | 0.00 | 0.00 | 0.00 | 100 | 1007.6 |
| 20260509215258 | 110 | 163 | 3.5 | 7.8 | 0.00 | 0.00 | 0.00 | 100 | 1007.6 |
| 20260509214757 | 110 | 139 | 3.5 | 7.8 | 0.00 | 0.00 | 0.00 | 100 | 1007.6 |
| 20260509214027 | 111 | 108 | 0.0 | 6.1 | 0.00 | 0.00 | 0.00 | 100 | 1007.7 |
| 20260509213525 | 111 | 142 | 0.0 | 3.5 | 0.00 | 0.00 | 0.00 | 100 | 1007.8 |
| 20260509213256 | 112 | 130 | 0.9 | 7.0 | 0.00 | 0.00 | 0.00 | 100 | 1007.8 |
| 20260509212522 | 112 | 36 | 2.6 | 7.0 | 0.00 | 0.00 | 0.00 | 100 | 1007.8 |
| 20260509212019 | 111 | 23 | 1.7 | 5.2 | 0.00 | 0.00 | 0.00 | 100 | 1007.9 |
| 20260509211510 | 111 | 102 | 1.7 | 5.2 | 0.00 | 0.00 | 0.00 | 100 | 1007.9 |
| 20260509211003 | 111 | 135 | 1.7 | 4.3 | 0.00 | 0.00 | 0.00 | 100 | 1008.1 |
| 20260509210459 | 111 | 132 | 0.9 | 4.3 | 0.00 | 0.00 | 0.00 | 100 | 1008.2 |
| 20260509205949 | 111 | 161 | 1.7 | 4.3 | 0.00 | 0.00 | 0.00 | 100 | 1008.2 |
| 20260509205445 | 112 | 358 | 0.0 | 5.2 | 0.00 | 0.00 | 0.00 | 100 | 1008.2 |
| 20260509204944 | 112 | 330 | 1.7 | 5.2 | 0.00 | 0.00 | 0.00 | 100 | 1008.2 |
| 20260509204443 | 111 | 57 | 1.7 | 6.1 | 0.00 | 0.00 | 0.00 | 100 | 1008.3 |
| 20260509204214 | 110 | 149 | 4.3 | 7.0 | 0.00 | 0.00 | 0.00 | 100 | 1008.4 |
| 20260509203443 | 111 | 126 | 1.7 | 7.0 | 0.00 | 0.00 | 0.00 | 100 | 1008.5 |
| 20260509203214 | 111 | 168 | 3.5 | 8.7 | 0.00 | 0.00 | 0.00 | 100 | 1008.5 |
| 20260509202443 | 111 | 87 | 4.3 | 8.7 | 0.00 | 0.00 | 0.00 | 100 | 1008.5 |
| 20260509201943 | 111 | 99 | 3.5 | 7.8 | 0.00 | 0.00 | 0.00 | 100 | 1008.5 |
| 20260509201441 | 111 | 97 | 2.6 | 8.7 | 0.00 | 0.00 | 0.00 | 100 | 1008.8 |
| 20260509200936 | 110 | 140 | 4.3 | 8.7 | 0.00 | 0.00 | 0.00 | 100 | 1009.0 |
| 20260509200437 | 109 | 167 | 3.5 | 12.2 | 0.00 | 0.00 | 0.00 | 100 | 1009.2 |
| 20260509195936 | 109 | 143 | 4.3 | 12.2 | 0.00 | 0.00 | 0.00 | 100 | 1009.2 |
| 20260509195436 | 110 | 101 | 5.2 | 11.3 | 0.00 | 0.00 | 0.00 | 100 | 1009.1 |
| 20260509194936 | 111 | 122 | 0.0 | 7.8 | 0.00 | 0.00 | 0.00 | 100 | 1009.2 |
| 20260509194436 | 112 | 22 | 0.0 | 5.2 | 0.00 | 0.00 | 0.00 | 100 | 1009.0 |
| 20260509193930 | 112 | 22 | 0.0 | 11.3 | 0.00 | 0.00 | 0.00 | 100 | 1009.0 |
| 20260509193422 | 113 | 30 | 1.7 | 11.3 | 0.00 | 0.00 | 0.00 | 100 | 1008.9 |
| 20260509192920 | 113 | 264 | 0.9 | 4.3 | 0.00 | 0.00 | 0.00 | 100 | 1008.9 |
| 20260509192416 | 113 | 4 | 3.5 | 5.2 | 0.00 | 0.00 | 0.00 | 100 | 1009.0 |
| 20260509191916 | 113 | 202 | 3.5 | 5.2 | 0.00 | 0.00 | 0.00 | 100 | 1009.1 |
| 20260509191415 | 112 | 225 | 0.0 | 6.1 | 0.00 | 0.00 | 0.00 | 100 | 1009.0 |
| 20260509191404 | 112 | 307 | 0.9 | 6.1 | 0.00 | 0.00 | 0.00 | 100 | 1009.1 |
| 20260509190621 | 112 | 219 | 0.9 | 5.2 | 0.00 | 0.00 | 0.00 | 100 | 1009.1 |
| 20260509185849 | 112 | 36 | 1.7 | 7.0 | 0.00 | 0.00 | 0.00 | 100 | 1009.2 |
| 20260509185615 | 112 | 223 | 2.6 | 7.0 | 0.00 | 0.00 | 0.00 | 100 | 1009.3 |
| 20260509184845 | 112 | 209 | 0.9 | 6.1 | 0.00 | 0.00 | 0.00 | 100 | 1009.4 |
| 20260509184615 | 111 | 32 | 2.6 | 5.2 | 0.00 | 0.00 | 0.00 | 100 | 1009.5 |
| 20260509183342 | 111 | 216 | 0.9 | 7.8 | 0.00 | 0.00 | 0.00 | 100 | 1009.7 |
| 20260509183109 | 111 | 198 | 3.5 | 7.8 | 0.00 | 0.00 | 0.00 | 100 | 1009.7 |